{"data":{"norad_id":64908,"intl_designator":"2025-157E","name":"STARLINK-34702","alt_names":[],"object_type":"PAYLOAD","status":"ACTIVE","operator":null,"country":"US","launch_date":"2025-07-26","launch_site_code":"AFETR","launch_vehicle":null,"mission":null,"orbit_class":"UNKNOWN","rcs_meters":null,"size_class":null,"mass_kg":null,"dimensions":null,"purposes":["comms"],"wikipedia_slug":null,"has_3d_model":false,"image_url":null,"decayed_at":null,"tle_current":{"epoch":"2026-09-20T10:38:44.799648Z","epoch_age_seconds":129169,"freshness":"FRESH","line1":"1 64908U 25157E   26263.44357407 -.00002488  00000+0 -68445-4 0  9994","line2":"2 64908  53.1606 159.4822 0000980  98.4100 261.7013 15.31696026 65965","mean_motion":15.31696026,"eccentricity":9.8e-5,"inclination_deg":53.1606,"raan_deg":159.4822,"arg_perigee_deg":98.41,"mean_anomaly_deg":261.7013,"bstar":-6.8445e-5,"rev_number":6596,"period_min":94.013431879205,"perigee_km":470.080650432,"apogee_km":471.42303264494,"semimajor_km":6848.8888415385,"source":"CELESTRAK","updated_at":"2026-09-21T09:00:35.454423Z"}}}